Retour au catalogue

STARLINK-30969

ActifCommunicationsVLEO
NORAD 58438·PAYLOAD·🇺🇸 United States

Lancé Nov 28, 2023 depuis Cape Canaveral Space Force Station

Loading…

Prochains Passages (prochaines 24 heures)

TLE

FraisSource: CelesTrak SupGP

Époque: Sep 14, 2026, 20:57 UTC

1 58438C 23183B   26257.87340278  .00052336  00000+0  18962-2 0  2579
2 58438  43.0012  53.2466 0001433 275.6929 209.2791 15.27542149    18

Suivez STARLINK-30969 en temps réel avec AllMySat

Download on the App Store